Iowa Falls, IA

9:41 AM CST on December 11, 2019 (GMT -0600)
Iowa Falls Municipal

Weather History for KIFA - October, 2019

Change the Weather History Date:

Tuesday, October 15, 2019

  Actual Average Record
Temperature  
Mean Temperature 50 °F -  
Max Temperature 57 °F 63 °F 88 °F (1953)
Min Temperature 43 °F 40 °F 24 °F (1972)
Degree Days  
Heating Degree Days 15    
Moisture  
Dew Point 36 °F    
Average Humidity 64    
Maximum Humidity 82    
Minimum Humidity 44    
Precipitation  
Precipitation 0.00 in - - ()
Sea Level Pressure  
Sea Level Pressure 29.89 in    
Wind  
Wind Speed 10 mph ()    
Max Wind Speed 25 mph    
Max Gust Speed 34 mph    
Visibility 10.0 miles    
Events      
Averages and records for this station are not official NWS values.
T = Trace of Precipitation, MM = Missing Value Source: Averaged Metar Reports

Daily Weather History Graph

Daily Weather History Graph

Search for Another Location

Airport or City:

Astronomy

Oct. 15, 2019 Rise Set
Actual Time 7:25 AM CDT 6:31 PM CDT
Civil Twilight 6:57 AM CDT 6:59 PM CDT
Nautical Twilight 6:24 AM CDT 7:32 PM CDT
Astronomical Twilight 5:52 AM CDT 8:04 PM CDT
Moon 7:50 PM CDT (10/15) 8:58 AM CDT (10/15)
Length of Visible Light 12h 02m
Length of Day
11h 05m
Full, 97% of the Moon is Illuminated
Oct 15
Full
Oct 21
Last Quarter
Oct 27
New
Nov 4
First Quarter
Nov 12
Full

Hourly Weather History & Observations

Time (CDT) Temp. Windchill Dew Point Humidity Pressure Visibility Wind Dir Wind Speed Gust Speed Precip Events Conditions
12:15 AM 46.9 °F - 36.0 °F 66% 29.88 in 10.0 mi SE 8.1 mph - N/A   Clear
12:35 AM 46.4 °F 43.5 °F 36.1 °F 67% 29.87 in 10.0 mi SE 5.8 mph - N/A   Clear
12:55 AM 46.0 °F 43.1 °F 36.0 °F 68% 29.86 in 10.0 mi SE 5.8 mph - N/A   Clear
1:15 AM 45.0 °F 41.2 °F 35.8 °F 70% 29.85 in 10.0 mi ESE 6.9 mph - N/A   Clear
1:35 AM 44.6 °F 40.7 °F 35.8 °F 71% 29.84 in 10.0 mi ESE 6.9 mph - N/A   Clear
1:55 AM 44.2 °F 40.3 °F 35.8 °F 72% 29.84 in 10.0 mi ESE 6.9 mph - N/A   Clear
2:15 AM 44.6 °F 40.7 °F 35.8 °F 71% 29.82 in 10.0 mi ESE 6.9 mph - N/A   Clear
2:35 AM 44.8 °F 42.4 °F 35.6 °F 70% 29.82 in 10.0 mi SE 4.6 mph - N/A   Clear
2:55 AM 44.6 °F 41.4 °F 35.8 °F 71% 29.81 in 10.0 mi ESE 5.8 mph - N/A   Clear
3:15 AM 44.2 °F 41.8 °F 35.8 °F 72% 29.79 in 10.0 mi SE 4.6 mph - N/A   Clear
3:35 AM 44.2 °F 40.3 °F 36.0 °F 73% 29.79 in 10.0 mi SE 6.9 mph - N/A   Clear
3:55 AM 44.1 °F 40.8 °F 36.1 °F 74% 29.78 in 10.0 mi SE 5.8 mph - N/A   Clear
4:15 AM 44.2 °F 41.0 °F 36.5 °F 74% 29.77 in 10.0 mi SE 5.8 mph - N/A   Clear
4:35 AM 43.7 °F 42.1 °F 36.7 °F 76% 29.77 in 10.0 mi SE 3.5 mph - N/A   Clear
4:55 AM 43.2 °F 41.5 °F 36.7 °F 78% 29.77 in 10.0 mi SSE 3.5 mph - N/A   Clear
5:15 AM 44.2 °F 41.8 °F 37.8 °F 78% 29.77 in 10.0 mi SSE 4.6 mph - N/A   Clear
5:35 AM 43.7 °F 40.3 °F 37.6 °F 79% 29.77 in 10.0 mi SSE 5.8 mph - N/A   Clear
5:55 AM 43.9 °F 42.3 °F 38.1 °F 80% 29.78 in 10.0 mi WSW 3.5 mph - N/A   Clear
6:15 AM 44.2 °F 41.0 °F 37.9 °F 79% 29.77 in 10.0 mi SSW 5.8 mph - N/A   Clear
6:35 AM 44.4 °F 41.2 °F 39.0 °F 81% 29.77 in 10.0 mi SW 5.8 mph - N/A   Clear
6:55 AM 47.3 °F - 42.1 °F 82% 29.77 in 10.0 mi SW 9.2 mph - N/A   Clear
7:15 AM 47.8 °F - 41.9 °F 80% 29.77 in 10.0 mi WSW 11.5 mph - N/A   Clear
7:35 AM 47.7 °F - 41.7 °F 80% 29.77 in 10.0 mi West 11.5 mph - N/A   Clear
7:55 AM 46.4 °F 41.5 °F 41.0 °F 81% 29.76 in 10.0 mi West 10.4 mph - N/A   Clear
8:15 AM 46.4 °F 41.1 °F 41.0 °F 81% 29.78 in 10.0 mi WNW 11.5 mph 17.3 mph N/A   Clear
8:35 AM 48.2 °F - 41.0 °F 76% 29.78 in 10.0 mi WNW 15.0 mph - N/A   Clear
8:55 AM 48.2 °F - 39.0 °F 71% 29.80 in 10.0 mi WNW 16.1 mph 25.3 mph N/A   Clear
9:15 AM 47.3 °F - 37.8 °F 69% 29.81 in 10.0 mi WNW 13.8 mph 20.7 mph N/A   Clear
9:35 AM 48.7 °F - 37.4 °F 65% 29.81 in 10.0 mi NW 16.1 mph 28.8 mph N/A   Clear
9:55 AM 48.9 °F - 36.1 °F 61% 29.82 in 10.0 mi NW 16.1 mph 25.3 mph N/A   Clear
10:15 AM 49.1 °F - 36.0 °F 61% 29.84 in 10.0 mi WNW 17.3 mph 21.9 mph N/A   Clear
10:35 AM 50.9 °F - 35.8 °F 56% 29.86 in 10.0 mi WNW 15.0 mph 24.2 mph N/A   Clear
10:55 AM 51.3 °F - 35.2 °F 54% 29.86 in 10.0 mi WNW 16.1 mph 26.5 mph N/A   Clear
11:15 AM 52.3 °F - 34.5 °F 51% 29.87 in 10.0 mi WNW 24.2 mph 28.8 mph N/A   Clear
11:35 AM 53.4 °F - 34.3 °F 48% 29.87 in 10.0 mi NW 16.1 mph 24.2 mph N/A   Clear
11:55 AM 54.5 °F - 34.2 °F 46% 29.88 in 10.0 mi WNW 18.4 mph 27.6 mph N/A   Clear
12:15 PM 54.0 °F - 34.7 °F 48% 29.88 in 10.0 mi WNW 17.3 mph 25.3 mph N/A   Clear
12:35 PM 52.7 °F - 34.7 °F 50% 29.89 in 10.0 mi WNW 19.6 mph 27.6 mph N/A   Clear
12:55 PM 51.8 °F - 34.7 °F 52% 29.88 in 10.0 mi WNW 16.1 mph 26.5 mph N/A   Clear
1:35 PM 57.0 °F - 35.2 °F 44% 29.88 in 10.0 mi WNW 24.2 mph 31.1 mph N/A   Clear
1:55 PM 55.2 °F - 34.5 °F 46% 29.88 in 10.0 mi WNW 23.0 mph 31.1 mph N/A   Mostly Cloudy
2:15 PM 54.5 °F - 35.8 °F 49% 29.89 in 10.0 mi West 25.3 mph 29.9 mph N/A   Overcast
2:35 PM 52.9 °F - 35.6 °F 52% 29.89 in 10.0 mi WNW 21.9 mph 31.1 mph N/A   Overcast
2:55 PM 52.3 °F - 35.6 °F 53% 29.90 in 10.0 mi WNW 25.3 mph 33.4 mph N/A   Mostly Cloudy
3:15 PM 52.2 °F - 34.5 °F 51% 29.91 in 10.0 mi WNW 19.6 mph 34.5 mph N/A   Mostly Cloudy
3:35 PM 51.6 °F - 34.3 °F 52% 29.92 in 10.0 mi WNW 20.7 mph 33.4 mph N/A   Overcast
3:55 PM 52.2 °F - 33.1 °F 48% 29.92 in 10.0 mi NW 18.4 mph 31.1 mph N/A   Overcast
4:15 PM 51.4 °F - 32.7 °F 49% 29.92 in 10.0 mi NW 18.4 mph 27.6 mph N/A   Overcast
4:35 PM 52.7 °F - 33.1 °F 47% 29.93 in 10.0 mi NW 20.7 mph 26.5 mph N/A   Overcast
4:55 PM 51.1 °F - 33.3 °F 51% 29.94 in 10.0 mi NW 16.1 mph 25.3 mph N/A   Overcast
5:15 PM 50.4 °F - 33.3 °F 52% 29.95 in 10.0 mi NW 17.3 mph 26.5 mph N/A   Overcast
5:35 PM 49.6 °F - 32.9 °F 53% 29.95 in 10.0 mi NW 15.0 mph 20.7 mph N/A   Overcast
5:55 PM 49.1 °F - 32.2 °F 52% 29.96 in 10.0 mi WNW 19.6 mph 28.8 mph N/A   Overcast
6:15 PM 48.6 °F - 32.2 °F 53% 29.97 in 10.0 mi WNW 16.1 mph 26.5 mph N/A   Overcast
6:35 PM 48.2 °F - 32.4 °F 54% 29.98 in 10.0 mi NW 18.4 mph 23.0 mph N/A   Overcast
7:15 PM 46.9 °F - 32.5 °F 57% 30.00 in 10.0 mi NW 18.4 mph 28.8 mph N/A   Overcast
7:35 PM 46.4 °F 39.2 °F 32.9 °F 59% 30.01 in 10.0 mi NW 18.4 mph 26.5 mph N/A   Overcast
7:55 PM 45.3 °F 38.7 °F 32.9 °F 62% 30.02 in 10.0 mi WNW 15.0 mph 24.2 mph N/A   Overcast
8:15 PM 45.1 °F 39.1 °F 33.4 °F 64% 30.02 in 10.0 mi WNW 12.7 mph 18.4 mph N/A   Overcast
8:35 PM 45.5 °F 39.9 °F 33.3 °F 62% 30.03 in 10.0 mi NW 11.5 mph 20.7 mph N/A   Overcast
8:55 PM 44.6 °F 37.4 °F 33.4 °F 65% 30.03 in 10.0 mi NW 16.1 mph 21.9 mph N/A   Overcast
9:35 PM 44.6 °F 38.8 °F 33.8 °F 66% 30.04 in 10.0 mi NW 11.5 mph 20.7 mph N/A   Overcast
9:55 PM 43.5 °F 37.1 °F 33.4 °F 68% 30.04 in 10.0 mi WNW 12.7 mph 17.3 mph N/A   Mostly Cloudy
10:15 PM 43.9 °F 36.5 °F 33.8 °F 68% 30.05 in 10.0 mi NW 16.1 mph 25.3 mph N/A   Mostly Cloudy
10:35 PM 44.1 °F 36.2 °F 34.0 °F 68% 30.05 in 10.0 mi WNW 18.4 mph 23.0 mph N/A   Overcast
10:55 PM 44.2 °F 37.0 °F 34.0 °F 67% 30.05 in 10.0 mi WNW 16.1 mph 21.9 mph N/A   Overcast
11:15 PM 44.1 °F 36.5 °F 34.2 °F 68% 30.06 in 10.0 mi NW 17.3 mph 25.3 mph N/A   Overcast
11:35 PM 43.9 °F 37.5 °F 34.3 °F 69% 30.06 in 10.0 mi WNW 12.7 mph 21.9 mph N/A   Overcast
11:55 PM 43.7 °F 36.9 °F 34.5 °F 70% 30.06 in 10.0 mi WNW 13.8 mph 17.3 mph N/A   Overcast